Regional Weather Roundup
Issued by NWS

Home | Current Version | Previous Version | Text Only | Print | Product List | Glossary On
Versions: 1 2 3 4 5 6 7 8 9 10 11 12 13 14 15 16 17 18 19 20 21 22 23 24 25 26 27 28 29 30 31 32 33 34 35 36 37 38 39 40 41 42 43 44 45 46 47 48 49 50
000
ASUS43 KFSD 232102
RWRSD

WEATHER ROUNDUP FOR SOUTH DAKOTA
NATIONAL WEATHER SERVICE SIOUX FALLS SD
300 PM CST MON JAN 23 2017

NOTE: "FAIR" INDICATES FEW OR NO CLOUDS BELOW 12,000 FEET WITH NO
SIGNIFICANT WEATHER AND/OR OBSTRUCTIONS TO VISIBILITY.


SDZ001>005-009-010-012>017-232200-
NORTHWEST AND NORTH CENTRAL SOUTH DAKOTA

CITY           SKY/WX    TMP DP  RH WIND       PRES   REMARKS
BUFFALO          N/A     25  20  81 E6        29.60S WCI  18
FAITH            N/A     28  24  85 NE13      29.66F WCI  17
MOBRIDGE       CLOUDY    30  24  78 E7        29.71F WCI  23
$$

SDZ012>016-024>037-041>051-057-063-072>074-232200-
SOUTHWEST AND SOUTH CENTRAL SOUTH DAKOTA

CITY           SKY/WX    TMP DP  RH WIND       PRES   REMARKS
RAPID CTY ARPT CLOUDY    24  21  88 N14       29.61S FOG     WCI  12
PIERRE         CLOUDY    30  26  85 E14       29.68F WCI  19
CUSTER         SUNNY     35  23  61 SW8       29.51F WCI  29
ELLSWORTH AFB  CLOUDY    23  23  99 N13       29.61S WCI  11
PHILIP         CLOUDY    28  26  92 NE10      29.65S WCI  19
PINE RIDGE     SUNNY     43  27  53 N5        29.55F
SPEARFISH      FOG       19  19 100 NW7       29.61F VSB<1/4 WCI  10
WINNER         CLOUDY    37  29  72 SE15      29.65F
$$

SDZ004>011-016>023-039-040-232200-
NORTHEAST SOUTH DAKOTA

CITY           SKY/WX    TMP DP  RH WIND       PRES   REMARKS
ABERDEEN       CLOUDY    30  24  78 CALM      29.79S
WATERTOWN      CLOUDY    29  26  89 NE6       29.76F WCI  23
BROOKINGS      CLOUDY    29  26  89 E6        29.78S WCI  23
SISSETON         N/A     33  27  78 CALM      29.79F
$$

SDZ017-020-022-023-036>040-048>070-232200-
SOUTHEAST SOUTH DAKOTA

CITY           SKY/WX    TMP DP  RH WIND       PRES   REMARKS
SIOUX FALLS    CLOUDY    31  28  89 E5        29.80R WCI  26
HURON          CLOUDY    31  27  85 E9        29.78R WCI  23
CHAMBERLAIN    CLOUDY    34  30  86 E12       29.71F WCI  25
MITCHELL       CLOUDY    33  27  78 SE10      29.79R WCI  25
YANKTON        CLOUDY    32  27  80 E9        29.78F WCI  24
$$

ABBREVIATIONS USED IN REMARKS
   TC - TEMPERATURE IN CELSIUS
  WCI - WIND CHILL INDEX
   HX - HEAT INDEX
  VSB - VISIBILITY




USA.gov is the U.S. government's official web portal to all federal, state and local government web resources and services.